iso_date,epoch_date,Year,Hour,Min,DOY,POS_DOY,Lat,Lon,BP,Ts,Ta,has_bp,has_ts,has_ta,BuoyID,Buoy_Type,Buoy_Owner,Logistics,Hemisphere
2020-07-07T07:59:57Z,1594108797,2020,8,0,189.3333,189.3333,79.30033,4.56551,-999.00,-999.00,-999.0,no,no,no,300534060651200,NOMAD,AWI/USIABP,MOSAiC,North
2020-07-07T09:00:00Z,1594112400,2020,9,0,189.375,189.375,79.3262,4.69846,-999.00,-999.00,-999.0,no,no,no,300534060651200,NOMAD,AWI/USIABP,MOSAiC,North
2020-07-07T10:00:02Z,1594116003,2020,10,0,189.4167,189.4167,79.35253,4.83105,-999.00,-999.00,-999.0,no,no,no,300534060651200,NOMAD,AWI/USIABP,MOSAiC,North
2020-07-07T10:09:59Z,1594116599,2020,10,10,189.4236,189.4236,79.35262,4.83099,-999.00,-999.00,-999.0,no,no,no,300534060651200,NOMAD,AWI/USIABP,MOSAiC,North
2020-07-07T10:20:03Z,1594117204,2020,10,20,189.4306,189.4306,79.3525,4.83115,-999.00,-999.00,-999.0,no,no,no,300534060651200,NOMAD,AWI/USIABP,MOSAiC,North
2020-07-07T10:30:00Z,1594117800,2020,10,30,189.4375,189.4375,79.35239,4.83166,-999.00,-999.00,-999.0,no,no,no,300534060651200,NOMAD,AWI/USIABP,MOSAiC,North
2020-07-07T10:39:56Z,1594118396,2020,10,40,189.4444,189.4444,79.35252,4.83129,-999.00,-999.00,-999.0,no,no,no,300534060651200,NOMAD,AWI/USIABP,MOSAiC,North
2020-07-07T10:50:00Z,1594119001,2020,10,50,189.4514,189.4514,79.3527,4.83097,-999.00,-999.00,-999.0,no,no,no,300534060651200,NOMAD,AWI/USIABP,MOSAiC,North
2020-07-07T10:59:57Z,1594119597,2020,11,0,189.4583,189.4583,79.35251,4.83125,-999.00,-999.00,-999.0,no,no,no,300534060651200,NOMAD,AWI/USIABP,MOSAiC,North
2020-07-07T11:10:01Z,1594120202,2020,11,10,189.4653,189.4653,79.36248,4.88054,-999.00,-999.00,-999.0,no,no,no,300534060651200,NOMAD,AWI/USIABP,MOSAiC,North
2020-07-07T11:19:58Z,1594120798,2020,11,20,189.4722,189.4722,79.37748,4.95626,-999.00,-999.00,-999.0,no,no,no,300534060651200,NOMAD,AWI/USIABP,MOSAiC,North
2020-07-07T11:30:02Z,1594121403,2020,11,30,189.4792,189.4792,79.37845,4.9632,-999.00,-999.00,-999.0,no,no,no,300534060651200,NOMAD,AWI/USIABP,MOSAiC,North
2020-07-07T11:39:59Z,1594121999,2020,11,40,189.4861,189.4861,79.37848,4.96248,-999.00,-999.00,-999.0,no,no,no,300534060651200,NOMAD,AWI/USIABP,MOSAiC,North
2020-07-07T11:50:03Z,1594122604,2020,11,50,189.4931,189.4931,79.37835,4.96375,-999.00,-999.00,-999.0,no,no,no,300534060651200,NOMAD,AWI/USIABP,MOSAiC,North
2020-07-07T12:00:00Z,1594123200,2020,12,0,189.5,189.5,79.37847,4.96289,-999.00,-999.00,-999.0,no,no,no,300534060651200,NOMAD,AWI/USIABP,MOSAiC,North
2020-07-07T12:09:56Z,1594123796,2020,12,10,189.5069,189.5069,79.37843,4.9629,-999.00,-999.00,-999.0,no,no,no,300534060651200,NOMAD,AWI/USIABP,MOSAiC,North
2020-07-07T12:20:00Z,1594124401,2020,12,20,189.5139,189.5139,79.37844,4.96302,-999.00,-999.00,-999.0,no,no,no,300534060651200,NOMAD,AWI/USIABP,MOSAiC,North
2020-07-07T12:29:57Z,1594124997,2020,12,30,189.5208,189.5208,79.38735,5.00863,-999.00,-999.00,-999.0,no,no,no,300534060651200,NOMAD,AWI/USIABP,MOSAiC,North
2020-07-07T12:40:01Z,1594125602,2020,12,40,189.5278,189.5278,79.40338,5.09166,-999.00,-999.00,-999.0,no,no,no,300534060651200,NOMAD,AWI/USIABP,MOSAiC,North
2020-07-07T12:49:58Z,1594126198,2020,12,50,189.5347,189.5347,79.40466,5.09498,-999.00,-999.00,-999.0,no,no,no,300534060651200,NOMAD,AWI/USIABP,MOSAiC,North
2020-07-07T13:00:02Z,1594126803,2020,13,0,189.5417,189.5417,79.4046,5.09486,-999.00,-999.00,-999.0,no,no,no,300534060651200,NOMAD,AWI/USIABP,MOSAiC,North
2020-07-07T13:09:59Z,1594127399,2020,13,10,189.5486,189.5486,79.40453,5.09556,-999.00,-999.00,-999.0,no,no,no,300534060651200,NOMAD,AWI/USIABP,MOSAiC,North
2020-07-07T13:20:03Z,1594128004,2020,13,20,189.5556,189.5556,79.40445,5.09553,-999.00,-999.00,-999.0,no,no,no,300534060651200,NOMAD,AWI/USIABP,MOSAiC,North
2020-07-07T13:30:00Z,1594128600,2020,13,30,189.5625,189.5625,79.40459,5.095,-999.00,-999.00,-999.0,no,no,no,300534060651200,NOMAD,AWI/USIABP,MOSAiC,North
2020-07-07T13:39:56Z,1594129196,2020,13,40,189.5694,189.5694,79.40462,5.09493,-999.00,-999.00,-999.0,no,no,no,300534060651200,NOMAD,AWI/USIABP,MOSAiC,North
2020-07-07T13:50:00Z,1594129801,2020,13,50,189.5764,189.5764,79.40462,5.095,-999.00,-999.00,-999.0,no,no,no,300534060651200,NOMAD,AWI/USIABP,MOSAiC,North
2020-07-07T13:59:57Z,1594130397,2020,14,0,189.5833,189.5833,79.40659,5.10315,-999.00,-999.00,-999.0,no,no,no,300534060651200,NOMAD,AWI/USIABP,MOSAiC,North
2020-07-07T14:10:01Z,1594131002,2020,14,10,189.5903,189.5903,79.41321,5.13201,-999.00,-999.00,-999.0,no,no,no,300534060651200,NOMAD,AWI/USIABP,MOSAiC,North
2020-07-07T14:19:58Z,1594131598,2020,14,20,189.5972,189.5972,79.42055,5.16794,-999.00,-999.00,-999.0,no,no,no,300534060651200,NOMAD,AWI/USIABP,MOSAiC,North
2020-07-07T14:30:02Z,1594132203,2020,14,30,189.6042,189.6042,79.42772,5.19554,-999.00,-999.00,-999.0,no,no,no,300534060651200,NOMAD,AWI/USIABP,MOSAiC,North
2020-07-07T14:39:59Z,1594132799,2020,14,40,189.6111,189.6111,79.439,5.24759,-999.00,-999.00,-999.0,no,no,no,300534060651200,NOMAD,AWI/USIABP,MOSAiC,North
2020-07-07T14:50:03Z,1594133404,2020,14,50,189.6181,189.6181,79.44527,5.2801,-999.00,-999.00,-999.0,no,no,no,300534060651200,NOMAD,AWI/USIABP,MOSAiC,North
2020-07-07T15:00:00Z,1594134000,2020,15,0,189.625,189.625,79.44755,5.29094,-999.00,-999.00,-999.0,no,no,no,300534060651200,NOMAD,AWI/USIABP,MOSAiC,North
2020-07-07T15:09:56Z,1594134596,2020,15,10,189.6319,189.6319,79.45236,5.30574,-999.00,-999.00,-999.0,no,no,no,300534060651200,NOMAD,AWI/USIABP,MOSAiC,North
2020-07-07T15:20:00Z,1594135201,2020,15,20,189.6389,189.6389,79.4495,5.37022,-999.00,-999.00,-999.0,no,no,no,300534060651200,NOMAD,AWI/USIABP,MOSAiC,North
2020-07-07T15:29:57Z,1594135797,2020,15,30,189.6458,189.6458,79.42784,5.28533,-999.00,-999.00,-999.0,no,no,no,300534060651200,NOMAD,AWI/USIABP,MOSAiC,North
2020-07-07T15:40:01Z,1594136402,2020,15,40,189.6528,189.6528,79.40494,5.19062,-999.00,-999.00,-999.0,no,no,no,300534060651200,NOMAD,AWI/USIABP,MOSAiC,North
2020-07-07T15:49:58Z,1594136998,2020,15,50,189.6597,189.6597,79.39582,5.07226,-999.00,-999.00,-999.0,no,no,no,300534060651200,NOMAD,AWI/USIABP,MOSAiC,North
2020-07-07T16:00:02Z,1594137603,2020,16,0,189.6667,189.6667,79.41327,5.14266,-999.00,-999.00,-999.0,no,no,no,300534060651200,NOMAD,AWI/USIABP,MOSAiC,North
2020-07-07T16:09:59Z,1594138199,2020,16,10,189.6736,189.6736,79.41312,5.14182,-999.00,-999.00,-999.0,no,no,no,300534060651200,NOMAD,AWI/USIABP,MOSAiC,North
2020-07-07T16:20:03Z,1594138804,2020,16,20,189.6806,189.6806,79.41312,5.14182,-999.00,-999.00,-999.0,no,no,no,300534060651200,NOMAD,AWI/USIABP,MOSAiC,North
2020-07-07T16:30:00Z,1594139400,2020,16,30,189.6875,189.6875,79.41312,5.14182,-999.00,-999.00,-999.0,no,no,no,300534060651200,NOMAD,AWI/USIABP,MOSAiC,North
2020-07-07T16:39:56Z,1594139996,2020,16,40,189.6944,189.6944,79.41312,5.14182,-999.00,-999.00,-999.0,no,no,no,300534060651200,NOMAD,AWI/USIABP,MOSAiC,North
2020-07-07T16:50:00Z,1594140601,2020,16,50,189.7014,189.7014,79.41312,5.14182,-999.00,-999.00,-999.0,no,no,no,300534060651200,NOMAD,AWI/USIABP,MOSAiC,North
2020-07-07T16:59:57Z,1594141197,2020,17,0,189.7083,189.7083,79.41312,5.14182,-999.00,-999.00,-999.0,no,no,no,300534060651200,NOMAD,AWI/USIABP,MOSAiC,North
2020-07-07T17:10:01Z,1594141802,2020,17,10,189.7153,189.7153,79.41312,5.14182,-999.00,-999.00,-999.0,no,no,no,300534060651200,NOMAD,AWI/USIABP,MOSAiC,North
2020-07-07T17:19:58Z,1594142398,2020,17,20,189.7222,189.7222,79.41312,5.14182,-999.00,-999.00,-999.0,no,no,no,300534060651200,NOMAD,AWI/USIABP,MOSAiC,North
2020-07-07T17:30:02Z,1594143003,2020,17,30,189.7292,189.7292,79.41312,5.14182,-999.00,-999.00,-999.0,no,no,no,300534060651200,NOMAD,AWI/USIABP,MOSAiC,North
2020-07-07T17:39:59Z,1594143599,2020,17,40,189.7361,189.7361,79.41312,5.14182,-999.00,-999.00,-999.0,no,no,no,300534060651200,NOMAD,AWI/USIABP,MOSAiC,North
2020-07-07T17:50:03Z,1594144204,2020,17,50,189.7431,189.7431,79.41312,5.14182,-999.00,-999.00,-999.0,no,no,no,300534060651200,NOMAD,AWI/USIABP,MOSAiC,North
2020-07-08T18:49:58Z,1594234198,2020,18,50,190.7847,190.7847,78.87857,0.94108,-999.00,-999.00,-999.0,no,no,no,300534060651200,NOMAD,AWI/USIABP,MOSAiC,North
2020-07-08T19:00:02Z,1594234803,2020,19,0,190.7917,190.7917,78.86199,0.86217,-999.00,-999.00,-999.0,no,no,no,300534060651200,NOMAD,AWI/USIABP,MOSAiC,North
2020-07-08T19:09:59Z,1594235399,2020,19,10,190.7986,190.7986,78.84982,0.77092,-999.00,-999.00,-999.0,no,no,no,300534060651200,NOMAD,AWI/USIABP,MOSAiC,North
2020-07-08T19:20:03Z,1594236004,2020,19,20,190.8056,190.8056,78.84472,0.66091,-999.00,-999.00,-999.0,no,no,no,300534060651200,NOMAD,AWI/USIABP,MOSAiC,North
2020-07-08T19:30:00Z,1594236600,2020,19,30,190.8125,190.8125,78.82792,0.66633,-999.00,-999.00,-999.0,no,no,no,300534060651200,NOMAD,AWI/USIABP,MOSAiC,North
2020-07-08T19:39:56Z,1594237196,2020,19,40,190.8194,190.8194,78.83994,0.7559,-999.00,-999.00,-999.0,no,no,no,300534060651200,NOMAD,AWI/USIABP,MOSAiC,North
2020-07-08T19:50:00Z,1594237801,2020,19,50,190.8264,190.8264,78.8561,0.83405,-999.00,-999.00,-999.0,no,no,no,300534060651200,NOMAD,AWI/USIABP,MOSAiC,North
2020-07-08T19:59:57Z,1594238397,2020,20,0,190.8333,190.8333,78.87217,0.91243,-999.00,-999.00,-999.0,no,no,no,300534060651200,NOMAD,AWI/USIABP,MOSAiC,North
2020-07-08T20:10:01Z,1594239002,2020,20,10,190.8403,190.8403,78.88831,0.99065,-999.00,-999.00,-999.0,no,no,no,300534060651200,NOMAD,AWI/USIABP,MOSAiC,North
2020-07-08T20:19:58Z,1594239598,2020,20,20,190.8472,190.8472,78.90468,1.0697,-999.00,-999.00,-999.0,no,no,no,300534060651200,NOMAD,AWI/USIABP,MOSAiC,North
2020-07-08T20:30:02Z,1594240203,2020,20,30,190.8542,190.8542,78.92066,1.1476,-999.00,-999.00,-999.0,no,no,no,300534060651200,NOMAD,AWI/USIABP,MOSAiC,North
2020-07-08T20:39:59Z,1594240799,2020,20,40,190.8611,190.8611,78.93687,1.22536,-999.00,-999.00,-999.0,no,no,no,300534060651200,NOMAD,AWI/USIABP,MOSAiC,North
2020-07-08T20:50:03Z,1594241404,2020,20,50,190.8681,190.8681,78.95302,1.30432,-999.00,-999.00,-999.0,no,no,no,300534060651200,NOMAD,AWI/USIABP,MOSAiC,North
2020-07-08T21:00:00Z,1594242000,2020,21,0,190.875,190.875,78.96888,1.38315,-999.00,-999.00,-999.0,no,no,no,300534060651200,NOMAD,AWI/USIABP,MOSAiC,North
2020-07-08T21:09:56Z,1594242596,2020,21,10,190.8819,190.8819,78.98505,1.46127,-999.00,-999.00,-999.0,no,no,no,300534060651200,NOMAD,AWI/USIABP,MOSAiC,North
2020-07-08T21:20:00Z,1594243201,2020,21,20,190.8889,190.8889,79.00112,1.54005,-999.00,-999.00,-999.0,no,no,no,300534060651200,NOMAD,AWI/USIABP,MOSAiC,North
2020-07-08T21:29:57Z,1594243797,2020,21,30,190.8958,190.8958,79.01732,1.61919,-999.00,-999.00,-999.0,no,no,no,300534060651200,NOMAD,AWI/USIABP,MOSAiC,North
2020-07-08T21:40:01Z,1594244402,2020,21,40,190.9028,190.9028,79.03344,1.69891,-999.00,-999.00,-999.0,no,no,no,300534060651200,NOMAD,AWI/USIABP,MOSAiC,North
2020-07-08T21:49:58Z,1594244998,2020,21,50,190.9097,190.9097,79.04969,1.77791,-999.00,-999.00,-999.0,no,no,no,300534060651200,NOMAD,AWI/USIABP,MOSAiC,North
2020-07-08T22:00:02Z,1594245603,2020,22,0,190.9167,190.9167,79.06576,1.85745,-999.00,-999.00,-999.0,no,no,no,300534060651200,NOMAD,AWI/USIABP,MOSAiC,North
2020-07-08T22:09:59Z,1594246199,2020,22,10,190.9236,190.9236,79.08195,1.93738,-999.00,-999.00,-999.0,no,no,no,300534060651200,NOMAD,AWI/USIABP,MOSAiC,North
2020-07-08T22:20:03Z,1594246804,2020,22,20,190.9306,190.9306,79.09818,2.01708,-999.00,-999.00,-999.0,no,no,no,300534060651200,NOMAD,AWI/USIABP,MOSAiC,North
2020-07-08T22:30:00Z,1594247400,2020,22,30,190.9375,190.9375,79.11429,2.0976,-999.00,-999.00,-999.0,no,no,no,300534060651200,NOMAD,AWI/USIABP,MOSAiC,North
2020-07-08T22:39:56Z,1594247996,2020,22,40,190.9444,190.9444,79.13059,2.17748,-999.00,-999.00,-999.0,no,no,no,300534060651200,NOMAD,AWI/USIABP,MOSAiC,North
2020-07-08T22:50:00Z,1594248601,2020,22,50,190.9514,190.9514,79.14665,2.25772,-999.00,-999.00,-999.0,no,no,no,300534060651200,NOMAD,AWI/USIABP,MOSAiC,North
2020-07-08T22:59:57Z,1594249197,2020,23,0,190.9583,190.9583,79.16271,2.33747,-999.00,-999.00,-999.0,no,no,no,300534060651200,NOMAD,AWI/USIABP,MOSAiC,North
2020-07-08T23:10:01Z,1594249802,2020,23,10,190.9653,190.9653,79.17884,2.41807,-999.00,-999.00,-999.0,no,no,no,300534060651200,NOMAD,AWI/USIABP,MOSAiC,North
2020-07-08T23:19:58Z,1594250398,2020,23,20,190.9722,190.9722,79.19507,2.49831,-999.00,-999.00,-999.0,no,no,no,300534060651200,NOMAD,AWI/USIABP,MOSAiC,North
2020-07-08T23:30:02Z,1594251003,2020,23,30,190.9792,190.9792,79.2112,2.58076,-999.00,-999.00,-999.0,no,no,no,300534060651200,NOMAD,AWI/USIABP,MOSAiC,North
2020-07-08T23:39:59Z,1594251599,2020,23,40,190.9861,190.9861,79.22722,2.66,-999.00,-999.00,-999.0,no,no,no,300534060651200,NOMAD,AWI/USIABP,MOSAiC,North
2020-07-08T23:50:03Z,1594252204,2020,23,50,190.9931,190.9931,79.24357,2.74087,-999.00,-999.00,-999.0,no,no,no,300534060651200,NOMAD,AWI/USIABP,MOSAiC,North
2020-07-09T00:00:00Z,1594252800,2020,0,0,191.0,191.0,79.25991,2.82224,-999.00,-999.00,-999.0,no,no,no,300534060651200,NOMAD,AWI/USIABP,MOSAiC,North
2020-07-09T00:09:56Z,1594253396,2020,0,10,191.0069,191.0069,79.27595,2.90335,-999.00,-999.00,-999.0,no,no,no,300534060651200,NOMAD,AWI/USIABP,MOSAiC,North
2020-07-09T00:20:00Z,1594254001,2020,0,20,191.0139,191.0139,79.29214,2.98443,-999.00,-999.00,-999.0,no,no,no,300534060651200,NOMAD,AWI/USIABP,MOSAiC,North
2020-07-09T00:29:57Z,1594254597,2020,0,30,191.0208,191.0208,79.30827,3.06593,-999.00,-999.00,-999.0,no,no,no,300534060651200,NOMAD,AWI/USIABP,MOSAiC,North
2020-07-09T00:40:01Z,1594255202,2020,0,40,191.0278,191.0278,79.32444,3.14762,-999.00,-999.00,-999.0,no,no,no,300534060651200,NOMAD,AWI/USIABP,MOSAiC,North
2020-07-09T00:49:58Z,1594255798,2020,0,50,191.0347,191.0347,79.34044,3.2289,-999.00,-999.00,-999.0,no,no,no,300534060651200,NOMAD,AWI/USIABP,MOSAiC,North
2020-07-09T01:00:02Z,1594256403,2020,1,0,191.0417,191.0417,79.35656,3.31019,-999.00,-999.00,-999.0,no,no,no,300534060651200,NOMAD,AWI/USIABP,MOSAiC,North
2020-07-09T01:09:59Z,1594256999,2020,1,10,191.0486,191.0486,79.37278,3.39219,-999.00,-999.00,-999.0,no,no,no,300534060651200,NOMAD,AWI/USIABP,MOSAiC,North
2020-07-09T01:20:03Z,1594257604,2020,1,20,191.0556,191.0556,79.38911,3.47419,-999.00,-999.00,-999.0,no,no,no,300534060651200,NOMAD,AWI/USIABP,MOSAiC,North
2020-07-09T01:30:00Z,1594258200,2020,1,30,191.0625,191.0625,79.40518,3.55677,-999.00,-999.00,-999.0,no,no,no,300534060651200,NOMAD,AWI/USIABP,MOSAiC,North
2020-07-09T01:39:56Z,1594258796,2020,1,40,191.0694,191.0694,79.42119,3.63855,-999.00,-999.00,-999.0,no,no,no,300534060651200,NOMAD,AWI/USIABP,MOSAiC,North
2020-07-09T01:50:00Z,1594259401,2020,1,50,191.0764,191.0764,79.4374,3.72077,-999.00,-999.00,-999.0,no,no,no,300534060651200,NOMAD,AWI/USIABP,MOSAiC,North
2020-07-09T01:59:57Z,1594259997,2020,2,0,191.0833,191.0833,79.45368,3.80348,-999.00,-999.00,-999.0,no,no,no,300534060651200,NOMAD,AWI/USIABP,MOSAiC,North
2020-07-09T02:10:01Z,1594260602,2020,2,10,191.0903,191.0903,79.46964,3.88629,-999.00,-999.00,-999.0,no,no,no,300534060651200,NOMAD,AWI/USIABP,MOSAiC,North
2020-07-09T02:19:58Z,1594261198,2020,2,20,191.0972,191.0972,79.48582,3.96948,-999.00,-999.00,-999.0,no,no,no,300534060651200,NOMAD,AWI/USIABP,MOSAiC,North
2020-07-09T02:30:02Z,1594261803,2020,2,30,191.1042,191.1042,79.50169,4.05327,-999.00,-999.00,-999.0,no,no,no,300534060651200,NOMAD,AWI/USIABP,MOSAiC,North
2020-07-09T02:39:59Z,1594262399,2020,2,40,191.1111,191.1111,79.51691,4.13899,-999.00,-999.00,-999.0,no,no,no,300534060651200,NOMAD,AWI/USIABP,MOSAiC,North
2020-07-09T02:50:03Z,1594263004,2020,2,50,191.1181,191.1181,79.52241,4.25619,-999.00,-999.00,-999.0,no,no,no,300534060651200,NOMAD,AWI/USIABP,MOSAiC,North
2020-07-09T03:00:00Z,1594263600,2020,3,0,191.125,191.125,79.52972,4.37093,-999.00,-999.00,-999.0,no,no,no,300534060651200,NOMAD,AWI/USIABP,MOSAiC,North
2020-07-09T03:09:56Z,1594264196,2020,3,10,191.1319,191.1319,79.54798,4.33228,-999.00,-999.00,-999.0,no,no,no,300534060651200,NOMAD,AWI/USIABP,MOSAiC,North
2020-07-09T03:20:00Z,1594264801,2020,3,20,191.1389,191.1389,79.53657,4.23222,-999.00,-999.00,-999.0,no,no,no,300534060651200,NOMAD,AWI/USIABP,MOSAiC,North
2020-07-09T03:29:57Z,1594265397,2020,3,30,191.1458,191.1458,79.5201,4.14585,-999.00,-999.00,-999.0,no,no,no,300534060651200,NOMAD,AWI/USIABP,MOSAiC,North
2020-07-09T03:40:01Z,1594266002,2020,3,40,191.1528,191.1528,79.50395,4.06121,-999.00,-999.00,-999.0,no,no,no,300534060651200,NOMAD,AWI/USIABP,MOSAiC,North
2020-07-09T03:49:58Z,1594266598,2020,3,50,191.1597,191.1597,79.48796,3.97857,-999.00,-999.00,-999.0,no,no,no,300534060651200,NOMAD,AWI/USIABP,MOSAiC,North
2020-07-09T04:00:02Z,1594267203,2020,4,0,191.1667,191.1667,79.47166,3.89608,-999.00,-999.00,-999.0,no,no,no,300534060651200,NOMAD,AWI/USIABP,MOSAiC,North
2020-07-09T04:09:59Z,1594267799,2020,4,10,191.1736,191.1736,79.4557,3.81368,-999.00,-999.00,-999.0,no,no,no,300534060651200,NOMAD,AWI/USIABP,MOSAiC,North
2020-07-09T04:20:03Z,1594268404,2020,4,20,191.1806,191.1806,79.4395,3.73155,-999.00,-999.00,-999.0,no,no,no,300534060651200,NOMAD,AWI/USIABP,MOSAiC,North
2020-07-09T04:30:00Z,1594269000,2020,4,30,191.1875,191.1875,79.42324,3.64838,-999.00,-999.00,-999.0,no,no,no,300534060651200,NOMAD,AWI/USIABP,MOSAiC,North
2020-07-09T04:39:56Z,1594269596,2020,4,40,191.1944,191.1944,79.4071,3.56692,-999.00,-999.00,-999.0,no,no,no,300534060651200,NOMAD,AWI/USIABP,MOSAiC,North
2020-07-09T04:50:00Z,1594270201,2020,4,50,191.2014,191.2014,79.39104,3.48457,-999.00,-999.00,-999.0,no,no,no,300534060651200,NOMAD,AWI/USIABP,MOSAiC,North
2020-07-09T04:59:57Z,1594270797,2020,5,0,191.2083,191.2083,79.3748,3.40182,-999.00,-999.00,-999.0,no,no,no,300534060651200,NOMAD,AWI/USIABP,MOSAiC,North
2020-07-09T05:10:01Z,1594271402,2020,5,10,191.2153,191.2153,79.35848,3.32123,-999.00,-999.00,-999.0,no,no,no,300534060651200,NOMAD,AWI/USIABP,MOSAiC,North
2020-07-09T05:19:58Z,1594271998,2020,5,20,191.2222,191.2222,79.34245,3.23927,-999.00,-999.00,-999.0,no,no,no,300534060651200,NOMAD,AWI/USIABP,MOSAiC,North
2020-07-09T05:30:02Z,1594272603,2020,5,30,191.2292,191.2292,79.32637,3.15698,-999.00,-999.00,-999.0,no,no,no,300534060651200,NOMAD,AWI/USIABP,MOSAiC,North
2020-07-09T05:39:59Z,1594273199,2020,5,40,191.2361,191.2361,79.31029,3.07496,-999.00,-999.00,-999.0,no,no,no,300534060651200,NOMAD,AWI/USIABP,MOSAiC,North
2020-07-09T05:50:03Z,1594273804,2020,5,50,191.2431,191.2431,79.29413,2.99434,-999.00,-999.00,-999.0,no,no,no,300534060651200,NOMAD,AWI/USIABP,MOSAiC,North
2020-07-09T06:00:00Z,1594274400,2020,6,0,191.25,191.25,79.278,2.91259,-999.00,-999.00,-999.0,no,no,no,300534060651200,NOMAD,AWI/USIABP,MOSAiC,North
2020-07-09T06:09:56Z,1594274996,2020,6,10,191.2569,191.2569,79.26173,2.83157,-999.00,-999.00,-999.0,no,no,no,300534060651200,NOMAD,AWI/USIABP,MOSAiC,North
2020-07-09T06:20:00Z,1594275601,2020,6,20,191.2639,191.2639,79.24543,2.75049,-999.00,-999.00,-999.0,no,no,no,300534060651200,NOMAD,AWI/USIABP,MOSAiC,North
2020-07-09T06:29:57Z,1594276197,2020,6,30,191.2708,191.2708,79.22945,2.66932,-999.00,-999.00,-999.0,no,no,no,300534060651200,NOMAD,AWI/USIABP,MOSAiC,North
2020-07-09T06:40:01Z,1594276802,2020,6,40,191.2778,191.2778,79.2132,2.58844,-999.00,-999.00,-999.0,no,no,no,300534060651200,NOMAD,AWI/USIABP,MOSAiC,North
2020-07-09T06:49:58Z,1594277398,2020,6,50,191.2847,191.2847,79.19715,2.50821,-999.00,-999.00,-999.0,no,no,no,300534060651200,NOMAD,AWI/USIABP,MOSAiC,North
2020-07-09T07:00:02Z,1594278003,2020,7,0,191.2917,191.2917,79.18087,2.42757,-999.00,-999.00,-999.0,no,no,no,300534060651200,NOMAD,AWI/USIABP,MOSAiC,North
2020-07-09T07:09:59Z,1594278599,2020,7,10,191.2986,191.2986,79.16466,2.34646,-999.00,-999.00,-999.0,no,no,no,300534060651200,NOMAD,AWI/USIABP,MOSAiC,North
2020-07-09T07:20:03Z,1594279204,2020,7,20,191.3056,191.3056,79.14848,2.26636,-999.00,-999.00,-999.0,no,no,no,300534060651200,NOMAD,AWI/USIABP,MOSAiC,North
2020-07-09T07:30:00Z,1594279800,2020,7,30,191.3125,191.3125,79.1324,2.18669,-999.00,-999.00,-999.0,no,no,no,300534060651200,NOMAD,AWI/USIABP,MOSAiC,North
2020-07-09T07:39:56Z,1594280396,2020,7,40,191.3194,191.3194,79.11619,2.10629,-999.00,-999.00,-999.0,no,no,no,300534060651200,NOMAD,AWI/USIABP,MOSAiC,North
2020-07-09T07:50:00Z,1594281001,2020,7,50,191.3264,191.3264,79.10008,2.02593,-999.00,-999.00,-999.0,no,no,no,300534060651200,NOMAD,AWI/USIABP,MOSAiC,North
2020-07-09T07:59:57Z,1594281597,2020,8,0,191.3333,191.3333,79.08387,1.9457,-999.00,-999.00,-999.0,no,no,no,300534060651200,NOMAD,AWI/USIABP,MOSAiC,North
2020-07-09T08:10:01Z,1594282202,2020,8,10,191.3403,191.3403,79.06765,1.86691,-999.00,-999.00,-999.0,no,no,no,300534060651200,NOMAD,AWI/USIABP,MOSAiC,North
2020-07-09T08:19:58Z,1594282798,2020,8,20,191.3472,191.3472,79.05137,1.78678,-999.00,-999.00,-999.0,no,no,no,300534060651200,NOMAD,AWI/USIABP,MOSAiC,North
2020-07-09T08:30:02Z,1594283403,2020,8,30,191.3542,191.3542,79.03532,1.70725,-999.00,-999.00,-999.0,no,no,no,300534060651200,NOMAD,AWI/USIABP,MOSAiC,North
2020-07-09T08:39:59Z,1594283999,2020,8,40,191.3611,191.3611,79.01916,1.62754,-999.00,-999.00,-999.0,no,no,no,300534060651200,NOMAD,AWI/USIABP,MOSAiC,North
2020-07-09T08:50:03Z,1594284604,2020,8,50,191.3681,191.3681,79.00294,1.54894,-999.00,-999.00,-999.0,no,no,no,300534060651200,NOMAD,AWI/USIABP,MOSAiC,North
2020-07-09T09:00:00Z,1594285200,2020,9,0,191.375,191.375,78.98709,1.46944,-999.00,-999.00,-999.0,no,no,no,300534060651200,NOMAD,AWI/USIABP,MOSAiC,North
2020-07-09T09:09:56Z,1594285796,2020,9,10,191.3819,191.3819,78.97081,1.39097,-999.00,-999.00,-999.0,no,no,no,300534060651200,NOMAD,AWI/USIABP,MOSAiC,North
2020-07-09T09:20:00Z,1594286401,2020,9,20,191.3889,191.3889,78.95479,1.312,-999.00,-999.00,-999.0,no,no,no,300534060651200,NOMAD,AWI/USIABP,MOSAiC,North
2020-07-09T09:29:57Z,1594286997,2020,9,30,191.3958,191.3958,78.9383,1.23269,-999.00,-999.00,-999.0,no,no,no,300534060651200,NOMAD,AWI/USIABP,MOSAiC,North
2020-07-09T09:40:01Z,1594287602,2020,9,40,191.4028,191.4028,78.92221,1.15417,-999.00,-999.00,-999.0,no,no,no,300534060651200,NOMAD,AWI/USIABP,MOSAiC,North
2020-07-09T09:49:58Z,1594288198,2020,9,50,191.4097,191.4097,78.90614,1.07588,-999.00,-999.00,-999.0,no,no,no,300534060651200,NOMAD,AWI/USIABP,MOSAiC,North
2020-07-09T10:00:02Z,1594288803,2020,10,0,191.4167,191.4167,78.88996,0.99701,-999.00,-999.00,-999.0,no,no,no,300534060651200,NOMAD,AWI/USIABP,MOSAiC,North
2020-07-09T10:09:59Z,1594289399,2020,10,10,191.4236,191.4236,78.87381,0.91856,-999.00,-999.00,-999.0,no,no,no,300534060651200,NOMAD,AWI/USIABP,MOSAiC,North
2020-07-09T10:20:03Z,1594290004,2020,10,20,191.4306,191.4306,78.8576,0.84042,-999.00,-999.00,-999.0,no,no,no,300534060651200,NOMAD,AWI/USIABP,MOSAiC,North
2020-07-09T10:30:00Z,1594290600,2020,10,30,191.4375,191.4375,78.84173,0.76431,-999.00,-999.00,-999.0,no,no,no,300534060651200,NOMAD,AWI/USIABP,MOSAiC,North
2020-07-09T10:39:56Z,1594291196,2020,10,40,191.4444,191.4444,78.8292,0.70354,-999.00,-999.00,-999.0,no,no,no,300534060651200,NOMAD,AWI/USIABP,MOSAiC,North
2020-07-09T10:50:00Z,1594291801,2020,10,50,191.4514,191.4514,78.82184,0.66992,-999.00,-999.00,-999.0,no,no,no,300534060651200,NOMAD,AWI/USIABP,MOSAiC,North
2020-07-09T10:59:57Z,1594292397,2020,11,0,191.4583,191.4583,78.81925,0.64912,-999.00,-999.00,-999.0,no,no,no,300534060651200,NOMAD,AWI/USIABP,MOSAiC,North
2020-07-09T11:10:01Z,1594293002,2020,11,10,191.4653,191.4653,78.83479,0.71307,-999.00,-999.00,-999.0,no,no,no,300534060651200,NOMAD,AWI/USIABP,MOSAiC,North
2020-07-09T11:19:58Z,1594293598,2020,11,20,191.4722,191.4722,78.85566,0.80241,-999.00,-999.00,-999.0,no,no,no,300534060651200,NOMAD,AWI/USIABP,MOSAiC,North
2020-07-09T11:30:02Z,1594294203,2020,11,30,191.4792,191.4792,78.85604,0.83144,-999.00,-999.00,-999.0,no,no,no,300534060651200,NOMAD,AWI/USIABP,MOSAiC,North
2020-07-09T11:39:59Z,1594294799,2020,11,40,191.4861,191.4861,78.85601,0.83147,-999.00,-999.00,-999.0,no,no,no,300534060651200,NOMAD,AWI/USIABP,MOSAiC,North
2020-07-09T11:50:03Z,1594295404,2020,11,50,191.4931,191.4931,78.85604,0.8315,-999.00,-999.00,-999.0,no,no,no,300534060651200,NOMAD,AWI/USIABP,MOSAiC,North
2020-07-09T12:00:00Z,1594296000,2020,12,0,191.5,191.5,78.85606,0.83153,-999.00,-999.00,-999.0,no,no,no,300534060651200,NOMAD,AWI/USIABP,MOSAiC,North